Location: Oshawa
(43.9000°N, 78.8670°W)
Time: 23:19:22
(UTC-05:00)

Thor Agena Rocket - Visible Passes

Search period start: 23 February 2018 00:00
Search period end: 05 March 2018 00:00
Orbit: 759 x 808 km, 99.1° (Epoch: 23 February)

Date Brightness Start Highest point End Pass type
(mag) Time Alt. Az. Time Alt. Az. Time Alt. Az.
23 Feb 5.3 05:43:04 10° SE 05:47:44 34° ENE 05:52:23 10° N visible
23 Feb 3.4 19:32:03 10° NNE 19:37:09 71° ESE 19:42:10 10° S visible
23 Feb 6.2 21:12:44 10° NNW 21:15:52 17° WNW 21:18:58 10° W visible
24 Feb 6.2 05:13:10 10° ESE 05:16:47 19° ENE 05:20:21 10° NNE visible
24 Feb 4.0 19:01:04 10° NNE 19:05:45 36° E 19:10:22 10° SSE visible
24 Feb 5.3 20:40:34 10° N 20:44:56 29° WNW 20:49:15 10° WSW visible
25 Feb 6.7 04:45:01 10° ENE 04:45:57 10° NE 04:46:55 10° NE visible
25 Feb 4.0 06:19:06 10° SSE 06:24:18 68° ENE 06:29:29 10° N visible
25 Feb 4.8 18:30:39 10° NE 18:34:12 19° E 18:37:43 10° SE visible
25 Feb 4.1 20:08:53 10° N 20:13:50 55° WNW 20:18:45 10° SSW visible
26 Feb 5.2 05:48:25 10° SE 05:53:11 37° ENE 05:57:54 10° N visible
26 Feb 3.3 19:37:30 10° NNE 19:42:37 78° ESE 19:47:38 10° S visible
26 Feb 6.3 21:18:25 10° NNW 21:21:15 15° WNW 21:24:04 10° W visible
27 Feb 6.2 05:18:24 10° ESE 05:22:12 21° ENE 05:25:57 10° NNE visible
27 Feb 3.9 19:06:28 10° NNE 19:11:14 40° E 19:15:56 10° SSE visible
27 Feb 5.5 20:46:08 10° N 20:50:20 27° WNW 20:54:31 10° WSW visible
28 Feb 6.6 04:49:42 10° ENE 04:51:21 11° NE 04:52:59 10° NE visible
28 Feb 4.7 18:35:55 10° NE 18:39:42 21° E 18:43:27 10° SE visible
28 Feb 4.3 20:14:23 10° N 20:19:17 50° WNW 20:24:07 10° SW visible
01 Mar 5.1 05:53:46 10° SE 05:58:37 40° ENE 06:03:25 10° N visible
01 Mar 3.4 19:42:58 10° NNE 19:48:04 86° ESE 19:53:06 10° SSW visible
01 Mar 6.4 21:24:08 10° NNW 21:26:38 14° WNW 21:29:08 10° W visible
02 Mar 6.1 05:23:39 10° ESE 05:27:36 22° ENE 05:31:32 10° NNE visible
02 Mar 3.8 19:11:52 10° NNE 19:16:42 44° E 19:21:29 10° S visible
02 Mar 5.6 20:51:41 10° N 20:55:45 25° WNW 20:59:46 10° WSW visible
03 Mar 6.6 04:54:37 10° E 04:56:44 12° NE 04:58:50 10° NNE visible
03 Mar 4.5 18:41:13 10° NE 18:45:12 23° E 18:49:08 10° SE visible
03 Mar 4.5 20:19:53 10° N 20:24:42 45° WNW 20:29:28 10° SW visible
04 Mar 4.9 05:59:09 10° SE 06:04:03 43° ENE 06:08:55 10° N visible
04 Mar 3.4 19:48:26 10° NNE 19:53:30 86° WNW 19:58:32 10° SSW visible
04 Mar 6.5 21:29:54 10° NNW 21:32:01 13° NW 21:34:08 10° W visible
